RH
56 54 42 35 38 40 51 57 55 43 36 41 55 56 46 41 44 53 43 39 39 36 29 26 28 31 34 31 42 75 93 96 99 99 100 100 100 100 99 94 94 97 99 99
48 45 37 37 43 52 54 63 63 48 34 32 30 35 35 37 44 46 42 40 37 36 34 30 29 32 37 34 36 45 72 88 95 95 95 95 97 93 94 95 97 96 100 99
46 30 24 37 49 58 59 68 57 57 46 50 51 53 40 27 20 25 33 38 38 35 34 33 32 34 39 39 40 39 46 73 88 85 90 89 92 93 97 95 95 100 98 99
49 36 40 42 48 43 68 46 50 56 68 82 44 84 48 35 25 23 34 34 37 36 34 33 33 33 36 39 42 38 38 54 76 82 82 86 85 90 90 90 96 99 100 100
41 44 51 58 50 42 60 42 49 57 75 82 80 93 64 39 36 33 36 62 63 54 43 35 34 32 32 32 39 42 41 45 56 73 70 83 79 79 80 85 93 99 100 100
47 37 45 49 44 46 49 60 62 68 81 97 74 72 64 40 35 29 63 63 63 63 63 62 62 64 67 75 66 48 44 44 46 71 81 81 81 78 80 84 89 96 100 100
55 40 33 37 49 39 58 70 90 81 96 80 39 48 56 37 55 71 73 67 61 56 58 60 63 65 70 76 83 80 52 45 50 71 86 84 82 80 78 83 88 93 99 100
83 71 48 38 64 77 75 86 94 93 76 67 52 66 72 76 64 69 67 62 59 60 60 61 60 62 68 76 83 91 77 57 65 80 88 86 85 84 80 83 90 90 96 98
86 65 51 50 42 52 82 94 88 98 79 94 68 97 87 100 99 92 85 83 88 81 72 67 61 63 65 72 82 93 96 99 99 89 89 90 88 88 86 85 87 93 94 97
74 92 68 47 55 82 79 69 87 76 92 88 76 91 95 96 99 99 99 98 96 95 92 86 80 69 67 68 70 83 94 98 100 100 100 98 93 93 89 89 90 94 96 99
74 92 66 45 66 89 68 84 94 94 90 93 93 94 100 100 99 98 99 100 97 96 95 95 88 86 82 76 71 66 79 87 90 97 100 100 100 100 100 100 99 92 96 97
68 93 84 55 40 46 55 90 97 96 88 95 93 97 100 100 100 98 98 100 100 100 97 96 95 94 88 85 83 81 71 68 74 84 83 88 100 100 100 100 100 100 100 100
80 79 82 54 42 49 76 93 95 92 97 96 89 97 100 100 99 100 99 100 100 100 99 98 97 96 96 94 89 88 88 83 79 73 75 81 78 88 100 100 96 97 99 100
52 87 79 82 74 66 95 85 87 90 94 94 96 97 98 99 98 100 100 100 98 98 98 97 97 97 95 92 94 91 93 90 83 82 80 78 73 74 72 79 90 88 85 86
54 89 69 63 54 52 92 86 88 94 95 93 96 95 98 99 100 100 97 80 74 74 77 84 88 90 91 92 90 91 94 91 86 88 90 91 81 63 60 56 56 82 86 86
60 76 66 62 38 47 56 72 73 88 94 93 83 96 99 100 97 93 66 57 60 63 65 66 73 78 86 91 92 91 91 95 88 89 86 81 81 80 78 64 53 44 54 83
71 77 72 64 44 53 71 96 93 86 93 94 93 98 95 94 82 76 61 58 58 57 62 66 70 70 76 86 92 97 97 94 94 94 93 82 78 78 75 73 66 65 60 50
84 78 70 70 51 79 78 64 95 86 92 94 86 98 95 68 63 63 60 61 62 60 61 64 65 66 70 76 82 84 89 90 88 86 88 89 87 82 78 72 68 63 58 62
67 74 80 78 65 48 60 74 96 89 94 78 66 58 53 65 50 63 61 60 63 63 62 63 66 68 70 75 78 75 79 88 88 90 89 91 91 90 89 87 84 76 66 55
63 61 75 83 78 82 71 66 66 99 83 75 57 60 61 55 58 69 64 66 68 69 71 74 73 74 77 84 84 78 78 82 82 90 90 91 89 94 93 93 93 79 83 67
69 79 92 91 90 74 61 67 55 67 85 72 57 63 62 66 72 67 66 68 74 77 80 83 81 81 85 86 87 86 84 88 90 91 90 91 92 89 91 97 97 97 90 78
86 85 88 84 77 80 64 62 76 79 73 56 56 64 65 64 67 70 68 70 74 76 82 80 75 73 74 80 84 83 85 90 88 88 88 91 94 95 94 92 95 98 100 98
70 82 84 79 68 64 71 82 72 68 75 56 59 60 64 67 74 73 73 70 70 71 70 72 70 72 75 78 84 83 82 84 85 87 88 91 93 95 91 89 90 96 96 97
60 74 86 84 54 70 64 64 56 48 51 55 57 61 67 71 74 74 72 70 70 69 69 71 71 72 76 80 83 88 82 82 83 84 88 90 92 92 92 95 96 97 92 90
55 57 63 65 54 60 50 58 64 54 53 56 57 63 71 72 69 71 70 69 71 67 68 71 76 77 82 86 85 84 81 81 81 85 92 94 96 97 97 94 96 98 98 95
52 46 59 54 47 53 50 54 64 59 50 55 61 60 64 73 70 70 66 69 68 68 68 70 76 81 88 86 83 86 86 86 86 90 92 95 99 97 96 97 98 96 97 94
Wind_Speed
3 3 8 14 17 24 25 27 29 30 29 25 22 31 33 36 27 25 25 25 26 27 23 29 28 31 33 34 30 35 37 41 40 37 33 32 33 34 35 38 40 41 43 40
5 10 12 14 16 18 20 22 27 25 27 25 31 34 35 33 33 23 27 29 28 25 24 24 27 27 31 35 36 35 36 38 42 41 41 38 39 41 43 41 39 44 46 44
10 14 18 19 18 20 22 21 23 28 29 28 25 29 36 39 36 30 30 32 31 30 27 24 22 27 27 31 34 37 39 38 41 40 39 34 34 32 31 36 40 44 45 48
8 6 13 17 21 21 23 21 27 25 22 20 20 22 31 34 31 27 25 24 26 28 27 25 25 22 27 29 30 37 39 40 41 43 38 41 38 32 36 39 41 39 46 47
9 17 16 19 19 21 25 23 24 25 23 21 33 13 25 28 26 21 13 6 11 13 15 25 24 23 31 30 30 32 33 37 39 41 44 42 40 39 39 39 39 41 42 46
20 19 16 19 22 22 21 22 26 25 18 14 33 17 19 25 23 23 5 9 11 11 12 11 9 9 8 7 8 20 31 35 39 40 45 43 44 38 35 37 37 38 37 42
20 13 12 7 17 13 6 13 7 4 4 11 11 9 20 15 3 5 8 10 13 14 16 14 14 13 14 14 10 9 22 28 31 39 42 44 43 40 39 40 39 36 33 35
10 19 9 16 14 11 18 9 6 6 10 21 16 7 7 11 9 13 14 14 16 20 19 20 19 17 19 21 20 16 7 20 24 33 38 40 39 36 37 37 34 34 35 39
7 9 17 11 17 8 6 10 16 8 16 9 4 3 4 16 13 15 17 18 19 18 20 19 19 18 24 26 27 25 21 18 14 26 31 33 34 33 32 34 33 32 34 31
5 12 6 16 7 5 5 15 5 4 6 4 4 4 7 13 11 14 15 16 17 20 18 19 18 19 28 30 30 33 33 31 30 23 17 11 27 29 30 29 30 30 31 32
11 5 11 13 4 12 12 8 4 5 5 3 3 4 8 9 8 13 14 13 15 22 21 20 19 27 29 31 35 37 39 38 39 37 34 34 28 19 13 16 23 31 32 35
3 5 9 20 14 5 13 9 10 4 6 2 2 5 8 8 9 13 18 16 14 13 16 18 19 26 29 32 34 36 35 39 38 36 40 40 36 32 34 31 20 11 15 23
5 3 9 14 5 5 8 19 19 16 8 4 1 5 6 7 12 12 15 13 11 13 14 13 15 17 22 28 32 34 34 35 34 38 37 37 38 38 32 34 32 27 23 19
4 3 5 6 13 14 13 23 25 18 5 12 12 13 7 13 15 15 11 11 13 13 14 13 14 15 22 27 28 30 31 32 33 35 36 34 37 33 32 34 28 30 30 29
6 4 5 13 16 11 11 24 27 24 21 13 18 18 12 11 11 11 14 15 16 15 15 15 14 12 16 20 25 26 27 32 33 33 33 32 32 32 30 30 28 28 27 25
4 3 6 5 7 5 20 24 23 27 21 19 18 15 13 15 14 14 15 17 17 16 16 16 14 13 14 17 18 20 23 23 25 28 30 31 31 30 30 28 28 24 25 23
6 5 6 5 18 5 8 19 16 17 21 15 17 9 14 16 15 15 16 16 16 16 15 15 14 15 18 19 17 17 17 17 20 22 20 24 24 23 23 26 26 22 17 14
5 7 3 5 10 6 2 16 8 19 19 19 16 10 10 12 14 16 15 15 15 15 15 14 13 15 16 16 17 14 15 14 17 19 18 21 20 21 21 21 21 21 21 15
7 3 3 4 5 3 7 15 7 7 12 16 14 14 13 5 3 15 15 14 14 14 13 16 17 17 17 17 13 12 15 16 17 19 17 16 16 15 12 15 15 16 20 19
4 3 2 3 3 6 9 18 12 2 10 14 12 13 14 12 8 8 14 14 13 16 16 18 18 17 20 22 21 18 16 16 16 17 17 15 13 14 14 13 14 14 15 16
6 4 4 3 2 3 9 17 5 6 5 11 11 12 10 7 4 7 10 12 15 16 19 20 19 18 18 20 20 18 17 19 18 17 16 16 17 18 16 16 15 15 16 18
4 4 3 2 3 4 10 8 5 2 5 7 9 8 8 8 10 10 11 12 13 15 15 15 14 16 16 16 14 13 15 16 18 19 18 18 19 20 19 22 22 19 15 13
1 1 2 3 2 4 5 5 6 6 5 4 4 4 5 4 5 6 8 9 10 11 11 12 14 13 14 16 16 15 16 17 17 17 19 20 20 20 21 21 24 21 19 17
2 2 2 2 1 5 6 5 4 1 1 2 3 3 3 4 4 6 7 8 9 12 13 15 15 17 19 18 17 17 20 19 19 20 19 19 20 21 20 20 20 20 21 20
2 1 2 4 6 6 3 3 6 3 2 1 1 3 5 7 8 8 8 8 12 14 15 15 15 18 20 19 18 17 20 21 22 21 22 21 20 22 23 21 19 20 23 23
4 4 3 3 2 3 8 6 1 3 1 2 4 5 4 3 5 6 6 9 9 10 14 16 17 21 19 20 22 21 24 24 23 22 20 21 22 23 23 22 25 22 23 27
Wind_Direction
325 266 253 266 255 263 276 280 276 276 275 281 272 279 277 283 270 283 284 266 258 256 257 254 242 232 224 218 206 210 201 198 194 195 195 194 198 197 201 204 201 194 198 196
312 285 272 272 283 274 270 278 276 283 281 272 272 270 271 271 271 279 270 267 266 258 251 249 245 236 219 218 212 209 206 201 196 196 200 202 199 202 204 205 202 200 196 196
286 272 286 284 281 276 262 259 281 275 285 286 284 282 275 268 268 260 258 254 253 252 252 245 241 229 220 214 211 211 208 205 202 201 200 201 202 206 204 208 206 202 200 198
286 277 302 294 283 271 273 269 273 272 275 277 272 279 278 278 266 263 266 254 249 249 245 241 237 226 224 218 212 210 209 205 205 204 202 197 194 198 204 207 206 201 198 200
294 304 307 297 275 280 273 280 279 280 272 279 275 263 258 265 268 260 281 1 357 326 286 243 245 242 240 238 215 209 209 208 209 209 208 203 201 202 203 208 204 199 198 199
293 296 282 267 281 282 278 281 281 272 257 256 255 261 266 263 253 256 36 16 18 26 32 28 30 34 4 338 248 220 211 214 213 208 208 205 203 199 196 203 203 199 198 201
323 325 307 295 311 324 297 305 291 268 225 256 322 250 248 319 120 59 59 55 46 42 47 38 37 39 32 19 4 255 228 222 210 207 206 204 203 200 199 203 198 195 195 197
340 316 346 328 307 288 288 262 254 304 291 297 301 267 355 31 84 92 77 63 59 51 51 44 43 44 39 32 28 22 240 229 210 205 204 204 202 199 203 205 200 197 198 198
317 287 312 318 314 302 329 297 310 268 268 271 258 72 52 7 26 71 72 65 51 48 49 44 42 42 40 37 36 36 40 49 56 211 204 203 199 196 201 207 200 199 202 201
289 290 294 335 341 118 323 293 327 292 292 301 288 61 17 29 31 46 52 52 51 49 42 40 35 41 41 42 42 48 46 48 43 52 72 167 203 197 201 205 200 200 200 197
296 264 300 330 347 302 346 321 294 259 243 291 324 63 358 27 47 55 44 37 40 56 46 38 35 36 33 36 43 49 47 47 45 44 47 51 53 96 142 176 195 206 202 200
335 290 312 311 295 246 347 294 290 262 273 262 240 63 2 30 51 62 63 45 36 46 49 49 36 32 29 32 35 40 44 48 45 45 46 45 46 49 63 57 71 128 179 203
330 340 319 337 359 314 344 341 335 320 275 298 131 76 23 51 50 40 58 55 46 46 43 37 39 36 22 29 31 35 34 40 42 43 44 45 42 42 44 55 55 62 74 76
18 262 244 274 277 304 311 358 2 5 349 47 56 96 54 47 60 58 46 51 47 44 46 53 43 43 31 31 29 30 29 35 38 39 39 39 40 36 40 49 52 56 56 52
338 269 271 272 287 329 344 6 13 20 21 53 57 48 30 61 40 41 37 43 48 50 48 53 56 53 41 38 39 29 32 34 34 42 40 33 34 36 37 41 46 52 53 50
0 280 313 298 335 315 23 11 21 24 21 41 49 51 44 54 49 48 46 43 47 47 44 46 47 45 45 35 40 43 40 40 42 40 38 34 32 27 24 33 35 37 46 41
319 315 327 300 337 92 4 3 23 33 24 18 43 30 32 42 41 35 38 40 37 34 35 35 38 33 30 36 34 31 39 31 40 39 24 30 27 21 14 25 21 28 36 42
294 320 325 297 342 55 166 12 23 57 27 17 27 35 58 55 51 39 29 33 35 30 23 22 23 31 29 26 30 27 33 27 29 32 22 16 15 4 7 12 5 4 12 13
220 313 316 337 340 313 16 1 357 47 37 16 15 11 14 243 347 35 18 22 22 15 7 7 7 7 15 23 30 30 26 23 21 23 15 18 7 357 360 8 347 358 341 349
118 34 50 357 20 6 356 337 340 294 45 5 8 13 2 19 27 8 357 8 11 12 11 7 5 13 15 8 11 19 24 25 17 8 5 4 352 360 354 354 342 350 329 333
353 356 25 12 25 286 331 340 335 51 353 339 5 10 13 40 35 340 1 10 6 7 7 4 7 11 12 10 7 11 10 5 355 353 356 348 354 350 348 338 339 336 329 324
360 351 354 339 4 351 5 353 42 295 313 355 19 20 8 6 3 3 4 3 4 4 3 3 2 3 359 5 8 4 358 349 348 344 344 341 343 340 334 337 334 329 320 313
349 185 291 228 252 253 298 265 294 289 313 357 30 21 13 23 8 352 352 355 357 358 3 360 1 358 358 358 360 358 353 347 342 340 338 334 329 325 329 324 320 321 317 315
227 163 236 322 237 253 260 245 246 260 316 12 11 2 18 12 12 2 353 357 1 5 2 359 356 355 356 356 356 353 348 343 337 334 331 328 329 330 325 317 311 304 302 301
259 203 238 259 284 301 260 262 281 200 121 116 25 3 2 354 2 357 0 2 356 357 355 355 352 351 346 348 350 348 347 341 334 329 326 327 325 321 317 312 298 286 283 280
197 205 202 250 296 273 290 322 345 177 352 6 2 359 3 327 334 337 346 350 348 351 352 349 347 346 345 344 343 340 343 341 335 326 322 320 315 314 312 308 304 300 287 286